SCP
-0 -0 -0 -0 0 -0 -0 -0 -0 -0 -0 -0 -0 -0 -0 -0 -0 -0 -0 -0 -0 -0 -0 -0 -0 -0 -0 -0 -0 -0 -0 -0 -0 -0 -0 -0 -0 -0 -0 -0 -0 -0 -0
0 0 0 0 -0 -0 -0 -0 -0 -0 -0 -0 -0 -0 -0 -0 -0 -0 -0 -0 -0 -0 -0 -0 -0 -0 -0 -0 -0 -0 -0 -0 -0 -0 -0 -0 -0 -0 -0 -0 -0 -0 -0
0 0 0 0 -0 0 -0 -0 -0 -0 -0 -0 -0 -0 -0 -0 -0 -0 -0 -0 -0 -0 -0 -0 -0 -0 -0 -0 -0 -0 -0 -0 -0 -0 -0 0 0 -0 -0 -0 -0 -0 -0
0 0 0 0 0 -0 -0 -0 -0 -0 -0 -0 -0 -0 -0 -0 -0 -0 -0 -0 -0 -0 -0 -0 -0 -0 -0 -0 -0 -0 -0 -0 -0 -0 0 0 0 -0 -0 -0 -0 -0 -0
0 0 0 0 0 0 0 0 0 -0 -0 -0 -0 -0 -0 -0 -0 -0 -0 -0 -0 -0 -0 -0 -0 -0 -0 -0 -0 -0 -0 -0 -0 0 0 0 0 -0 -0 -0 -0 -0 -0
0 0 0 -0 -0 0 0 0 0 -0 -0 -0 -0 -0 -0 -0 -0 -0 -0 -0 -0 -0 -0 -0 -0 -0 -0 -0 -0 -0 -0 -0 0 0 0 0 0 -0 -0 -0 -0 -0 -0
0 0 0 -0 -0 -0 -0 -0 0 0 -0 -0 -0 -0 -0 -0 -0 -0 -0 -0 -0 -0 -0 -0 -0 -0 -0 -0 -0 -0 -0 -0 0 0 0 0 0 -0 -0 -0 -0 -0 -0
-0 0 0 -0 -0 -0 -0 -0 -0 -0 -0 -0 -0 -0 -0 -0 -0 -0 -0 -0 -0 -0 -0 -0 -0 -0 -0 -0 -0 -0 -0 -0 0 0 0 0 -0 -0 -0 -0 -0 -0 -0
0 -0 0 0 -0 -0 -0 -0 -0 -0 -0 -0 -0 -0 -0 -0 -0 -0 -0 -0 -0 -0 -0 -0 -0 -0 -0 -0 -0 -0 -0 -0 0 0 0 0 -0 -0 -0 0 0 0 0
-0 -0 -0 -0 -0 0 0 -0 -0 -0 -0 -0 -0 -0 -0 -0 -0 -0 -0 -0 -0 -0 -0 -0 -0 -0 -0 -0 -0 -0 -0 -0 0 0 0 0 0 0 0 0 0 0 0
-0 -0 -0 -0 -0 0 0 0 -0 -0 -0 -0 -0 -0 0 0 0 -0 0 -0 0 -0 -0 -0 -0 -0 -0 0 0 0 0 0 0 0 0 0 0 0 0 0 0 0 0
-0 -0 -0 -0 -0 -0 0 0 0 0 0 0 0 0 0 0 0 0 0 0 0 0 0 0 0 0 0 0 0 0 0 0 0 0 0 0 0 0 0 0 0 0 0
-0 -0 -0 -0 -0 -0 0 0 0 0 0 0 0 0 0 0 0 0 0 0 0 0 0 0 0 0 0 0 0 0 0 0 0 0 0 0 0 0 0 0 0 0 0
-0 -0 -0 -0 -0 -0 0 0 0 0 0 0 0 0 0 0 0 0 0 0 0 0 0 0 0 0 0 0 0 0 0 0 0 0 0 0 0 0 0 0 0 0 0
-0 -0 -0 -0 -0 0 0 0 0 0 0 0 0 0 0 0 0 0 0 0 0 0 0 0 0 0 0 0 0 0 0 0 0 0 0 0 0 0 0 0 0 0 0
-0 -0 -0 -0 0 0 0 -0 0 0 0 0 0 0 0 0 0 0 0 0 0 0 0 0 0 0 0 0 0 0 0 0 0 0 0 0 0 0 0 0 0 0 0
0 0 -0 -0 -0 -0 -0 0 0 0 0 0 0 0 0 0 0 0 0 0 0 0 0 0 0 0 0 0 0 0 0 0 0 0 0 0 0 0 0 0 0 0 0
0 0 -0 0 -0 -0 -0 0 0 0 0 0 0 0 0 0 0 0 0 0 0 0 0 0 0 0 0 0 0 0 0 0 0 0 0 0 0 0 0 0 0 0 0
0 0 0 0 -0 -0 -0 0 0 0 0 0 0 0 0 0 0 0 0 0 0 0 0 0 0 0 0 0 0 0 0 0 0 0 0 0 0 0 0 0 0 0 0
0 0 0 0 0 0 0 0 0 0 0 0 0 0 0 0 0 0 0 0 0 0 0 0 0 0 0 0 0 0 0 0 0 0 0 0 0 0 0 0 0 0 0
0 0 0 0 0 0 0 0 0 0 0 0 0 0 0 0 0 0 0 0 0 0 0 0 0 0 0 0 0 0 0 0 0 0 0 0 0 0 0 0 0 0 0
0 0 0 0 0 0 0 0 0 0 0 0 0 0 0 0 0 0 0 0 0 0 0 0 0 0 0 0 0 0 0 0 0 0 0 0 0 0 0 0 0 0 0
0 0 0 0 0 0 0 0 0 0 0 0 0 0 0 0 0 0 0 0 0 0 0 0 0 0 0 0 0 0 0 0 0 0 0 0 0 0 0 0 0 0 0
0 0 0 0 0 0 0 0 0 0 0 0 0 0 0 0 0 0 0 0 0 0 0 0 0 0 0 0 0 0 0 0 0 0 0 0 0 0 0 0 0 0 0
0 0 0 0 0 0 0 0 0 0 0 0 0 0 0 0 0 0 0 0 0 0 0 0 0 0 0 0 0 0 0 0 0 0 0 0 0 0 0 0 0 0 0
0 0 0 0 0 0 0 0 0 0 0 0 0 0 0 0 0 0 0 0 0 0 0 0 0 0 0 0 0 0 0 0 0 0 0 0 0 0 0 0 0 0 0
Wind_Speed_500mb
41 38 28 25 22 19 17 16 18 19 19 19 21 20 17 20 23 25 23 20 23 27 26 25 23 28 29 26 24 28 31 33 35 41 40 38 38 38 38 36 40 41 39
44 37 30 26 24 20 17 17 19 20 19 18 18 20 17 20 21 26 27 24 30 28 28 27 27 28 28 27 26 26 24 23 29 35 38 38 41 39 37 37 33 26 26
42 39 32 26 24 20 18 17 18 19 18 19 19 18 19 20 22 26 27 25 26 29 32 30 28 26 25 23 22 21 19 16 17 24 30 33 26 27 27 24 25 28 33
42 38 32 29 25 22 19 18 17 17 16 17 16 18 20 16 19 21 23 20 23 27 30 31 28 29 26 25 25 22 20 19 18 16 23 31 28 26 28 30 32 34 32
42 37 33 30 26 23 20 18 17 16 16 16 16 17 22 16 12 17 19 19 17 20 25 27 25 26 26 26 26 24 23 21 20 19 22 33 39 32 33 32 36 33 32
42 36 33 30 27 24 21 19 17 16 15 15 15 16 21 18 8 12 15 17 12 14 23 22 21 24 25 26 27 26 27 27 27 31 35 39 34 29 35 33 29 27 28
43 38 33 30 27 24 20 17 15 14 14 14 14 16 19 17 11 6 9 13 9 9 15 17 18 21 21 23 25 27 29 32 39 37 37 32 27 22 22 23 24 27 25
40 39 35 31 28 25 20 17 16 14 13 12 12 14 16 15 8 4 7 9 5 6 12 13 12 15 18 20 20 23 30 33 33 27 25 18 15 16 16 17 15 18 21
38 37 37 34 31 27 22 19 17 15 12 11 10 11 11 10 5 3 3 5 3 4 8 10 11 12 15 17 18 20 19 23 19 19 15 16 10 8 5 9 11 15 23
37 40 40 38 35 32 27 22 18 15 13 12 10 9 7 5 3 2 0 2 5 4 7 9 11 12 13 14 13 13 10 9 11 15 11 13 10 4 5 5 13 20 21
41 41 45 43 40 36 32 28 25 21 17 15 13 11 8 6 4 4 3 3 6 6 7 10 11 11 10 9 7 5 8 8 8 10 14 9 4 11 7 10 12 13 21
47 45 46 47 44 41 38 35 32 29 25 22 19 16 13 10 7 8 7 6 7 7 7 9 9 9 7 4 2 4 6 8 10 10 8 9 12 5 8 6 10 16 21
46 46 47 48 45 45 44 42 40 36 32 28 25 21 18 14 9 6 9 9 8 7 8 8 7 6 5 3 2 3 5 8 9 7 3 5 7 13 16 5 15 20 22
44 44 44 46 44 44 46 46 44 42 38 34 30 27 24 19 14 8 6 8 8 8 7 7 6 5 3 3 5 4 8 9 10 8 5 8 7 15 9 14 15 18 18
43 43 45 44 44 39 42 45 49 48 45 39 37 33 30 25 23 15 8 11 10 8 8 7 4 5 3 3 2 4 8 11 12 12 9 10 10 16 6 8 9 16 16
44 46 45 47 46 44 45 41 42 50 50 46 44 40 36 33 30 27 19 14 16 12 9 10 10 10 9 9 8 7 9 13 14 14 14 15 15 17 12 5 6 14 15
46 49 51 50 52 54 52 49 46 43 46 51 49 47 43 40 37 37 31 24 19 22 17 17 17 18 18 17 14 17 16 17 18 19 22 22 21 21 21 16 11 9 11
52 55 54 57 60 61 63 60 56 51 48 47 43 49 49 46 44 42 42 33 28 28 26 25 28 31 30 25 26 25 23 23 26 29 29 30 29 29 26 25 26 24 14
51 55 59 63 65 64 66 69 65 59 56 53 50 45 48 49 49 49 47 44 41 39 40 43 35 36 40 39 36 32 32 32 34 37 37 38 38 38 38 38 33 33 27
49 54 58 62 65 67 67 70 72 71 66 63 61 54 49 52 53 54 54 50 53 54 53 51 52 48 46 44 43 43 43 44 44 46 44 46 48 48 47 49 44 41 38
55 56 55 60 62 67 72 76 80 80 76 74 71 63 58 55 54 57 57 58 61 59 58 58 59 58 55 53 50 50 53 54 56 56 57 55 56 57 57 58 57 51 47
55 52 54 56 61 64 69 71 77 76 78 77 73 73 64 61 58 59 61 65 66 63 64 64 66 67 63 62 62 61 49 61 69 68 70 69 66 65 66 66 66 62 58
34 47 52 54 56 59 68 73 75 79 83 81 81 78 75 69 66 59 63 61 68 74 70 73 73 73 74 74 74 63 25 46 52 64 75 79 79 75 74 72 73 71 70
25 27 36 44 46 51 62 75 77 76 77 74 79 77 77 68 70 59 56 65 62 68 76 77 84 84 88 84 84 84 85 82 49 40 52 61 79 81 80 82 80 78 78
9 12 17 26 37 43 50 63 71 76 75 74 70 68 66 67 67 60 63 65 67 71 71 78 84 89 91 99 97 93 90 95 94 86 70 70 67 65 71 86 87 84 83
3 4 10 15 22 30 37 46 55 60 64 66 65 66 61 55 51 53 59 62 63 68 73 77 77 84 88 97 103 105 104 88 98 96 95 100 92 92 86 81 89 88 89
Wind_Direction_500mb
160 159 152 147 140 131 126 114 105 102 102 105 108 100 85 74 66 64 66 82 98 100 96 85 93 93 101 110 111 114 107 101 94 90 88 90 90 92 93 91 90 89 89
156 157 153 152 147 138 116 98 96 100 105 109 109 104 91 87 79 72 72 87 98 95 93 94 90 102 103 107 113 116 119 111 105 103 98 95 94 95 93 85 86 89 90
166 160 158 155 148 138 120 108 100 101 106 112 117 108 101 91 81 73 72 83 96 96 89 97 95 95 100 105 112 118 123 124 123 124 120 105 98 87 85 93 90 81 79
171 164 163 159 153 144 129 118 110 105 100 102 108 104 106 92 86 75 70 85 94 97 93 100 96 95 92 94 97 98 102 106 111 126 117 110 102 96 94 90 83 81 83
175 168 166 163 158 150 138 128 122 115 110 106 105 108 114 110 87 77 67 84 91 97 96 101 94 85 82 83 86 87 87 90 96 100 100 103 97 100 98 91 94 98 100
177 175 173 169 164 158 149 141 135 127 115 108 108 114 127 119 128 86 66 68 86 91 95 108 83 82 79 83 85 87 91 92 94 88 89 84 94 102 104 108 111 113 104
180 181 181 178 174 169 160 152 145 137 131 124 120 121 129 123 161 110 70 69 92 89 92 96 88 78 75 83 88 90 93 96 92 89 97 104 106 108 108 112 117 117 119
185 186 188 186 185 183 178 168 162 156 150 141 133 131 136 147 159 84 48 48 83 93 101 105 88 78 77 87 93 101 107 104 109 114 116 119 106 108 110 107 113 110 108
190 196 195 195 193 194 193 185 180 175 167 159 149 148 153 158 153 112 57 40 137 116 122 115 109 94 90 92 98 112 124 122 132 141 132 132 163 116 157 113 102 115 117
194 203 205 204 203 203 202 201 199 193 185 180 177 176 175 172 169 167 127 83 162 158 140 123 113 100 92 91 102 118 128 128 139 150 138 131 101 40 19 107 120 129 122
198 208 211 212 210 210 211 210 208 208 207 204 201 202 202 209 234 252 261 177 179 172 147 129 122 113 102 95 105 152 179 187 189 170 147 145 235 302 30 137 149 135 122
202 207 212 215 216 216 216 217 217 216 216 216 215 217 216 211 234 254 249 217 194 182 154 142 138 131 117 97 87 165 201 213 212 211 215 252 277 354 35 188 155 132 126
205 211 213 215 219 223 224 223 223 224 223 222 221 221 219 225 237 252 245 228 209 184 166 157 157 153 141 127 122 176 207 220 235 222 267 277 338 344 357 144 137 128 114
214 216 218 219 222 227 230 231 232 230 230 228 229 228 227 231 222 236 226 219 207 180 181 181 168 162 160 153 153 189 213 223 222 226 228 246 299 328 4 124 131 129 130
223 223 222 222 223 225 228 235 237 237 236 236 233 233 231 230 225 229 214 206 208 207 197 195 190 203 220 231 225 200 211 232 234 252 252 278 286 315 338 144 163 145 140
231 232 231 231 232 234 235 240 244 243 242 239 237 236 234 232 230 226 225 221 212 214 217 221 234 246 249 255 268 263 236 234 234 258 252 268 289 292 301 193 172 156 153
242 240 236 237 238 240 242 245 246 251 247 244 241 239 236 235 234 230 230 229 225 220 230 241 251 255 257 256 265 270 250 234 234 234 254 262 268 276 285 265 243 200 174
245 244 244 241 240 241 243 246 248 252 254 250 248 241 239 237 237 236 234 238 240 243 250 255 268 266 261 261 262 260 250 241 231 234 250 248 261 267 264 245 258 276 254
248 246 245 244 243 243 243 244 246 251 255 256 252 247 241 241 240 240 239 241 241 246 248 249 246 258 260 261 259 253 244 247 240 242 249 250 260 262 269 264 252 272 265
247 245 245 245 246 245 244 244 245 248 250 253 254 252 248 245 243 244 243 246 246 243 243 247 249 248 249 249 253 251 250 246 240 243 249 249 250 258 259 266 266 265 263
242 238 239 241 242 243 241 240 241 244 246 249 251 254 253 250 246 248 248 247 249 251 254 252 252 253 253 252 249 251 249 248 249 248 247 256 254 252 254 259 263 264 260
238 238 238 242 242 243 245 246 245 248 249 253 255 257 256 252 251 249 253 252 251 254 256 256 255 253 253 258 251 249 252 250 253 249 249 248 251 252 251 254 256 259 257
237 238 243 246 247 247 244 244 244 245 247 249 253 254 258 257 255 255 256 257 262 253 255 257 258 256 252 253 253 247 240 244 258 258 256 251 250 252 254 250 253 254 256
235 234 243 243 242 244 242 241 243 245 247 253 252 255 261 259 260 264 263 256 265 271 256 261 259 257 250 253 246 248 254 252 252 263 257 263 254 252 257 253 250 252 253
199 230 253 248 239 240 240 240 242 245 251 256 258 257 260 262 263 265 264 259 266 265 265 268 268 261 261 253 253 253 249 249 251 256 260 263 257 255 262 255 251 251 253
104 241 268 264 248 243 241 239 241 245 251 256 260 263 268 272 274 269 270 271 271 271 271 271 275 270 267 263 257 256 255 256 251 254 258 260 261 267 268 263 254 253 250
Wind_Speed_850mb
41 38 28 25 22 19 17 16 18 19 19 19 21 20 17 20 23 25 23 20 23 27 26 25 23 28 29 26 24 28 31 33 35 41 40 38 38 38 38 36 40 41 39
44 37 30 26 24 20 17 17 19 20 19 18 18 20 17 20 21 26 27 24 30 28 28 27 27 28 28 27 26 26 24 23 29 35 38 38 41 39 37 37 33 26 26
42 39 32 26 24 20 18 17 18 19 18 19 19 18 19 20 22 26 27 25 26 29 32 30 28 26 25 23 22 21 19 16 17 24 30 33 26 27 27 24 25 28 33
42 38 32 29 25 22 19 18 17 17 16 17 16 18 20 16 19 21 23 20 23 27 30 31 28 29 26 25 25 22 20 19 18 16 23 31 28 26 28 30 32 34 32
42 37 33 30 26 23 20 18 17 16 16 16 16 17 22 16 12 17 19 19 17 20 25 27 25 26 26 26 26 24 23 21 20 19 22 33 39 32 33 32 36 33 32
42 36 33 30 27 24 21 19 17 16 15 15 15 16 21 18 8 12 15 17 12 14 23 22 21 24 25 26 27 26 27 27 27 31 35 39 34 29 35 33 29 27 28
43 38 33 30 27 24 20 17 15 14 14 14 14 16 19 17 11 6 9 13 9 9 15 17 18 21 21 23 25 27 29 32 39 37 37 32 27 22 22 23 24 27 25
40 39 35 31 28 25 20 17 16 14 13 12 12 14 16 15 8 4 7 9 5 6 12 13 12 15 18 20 20 23 30 33 33 27 25 18 15 16 16 17 15 18 21
38 37 37 34 31 27 22 19 17 15 12 11 10 11 11 10 5 3 3 5 3 4 8 10 11 12 15 17 18 20 19 23 19 19 15 16 10 8 5 9 11 15 23
37 40 40 38 35 32 27 22 18 15 13 12 10 9 7 5 3 2 0 2 5 4 7 9 11 12 13 14 13 13 10 9 11 15 11 13 10 4 5 5 13 20 21
41 41 45 43 40 36 32 28 25 21 17 15 13 11 8 6 4 4 3 3 6 6 7 10 11 11 10 9 7 5 8 8 8 10 14 9 4 11 7 10 12 13 21
47 45 46 47 44 41 38 35 32 29 25 22 19 16 13 10 7 8 7 6 7 7 7 9 9 9 7 4 2 4 6 8 10 10 8 9 12 5 8 6 10 16 21
46 46 47 48 45 45 44 42 40 36 32 28 25 21 18 14 9 6 9 9 8 7 8 8 7 6 5 3 2 3 5 8 9 7 3 5 7 13 16 5 15 20 22
44 44 44 46 44 44 46 46 44 42 38 34 30 27 24 19 14 8 6 8 8 8 7 7 6 5 3 3 5 4 8 9 10 8 5 8 7 15 9 14 15 18 18
43 43 45 44 44 39 42 45 49 48 45 39 37 33 30 25 23 15 8 11 10 8 8 7 4 5 3 3 2 4 8 11 12 12 9 10 10 16 6 8 9 16 16
44 46 45 47 46 44 45 41 42 50 50 46 44 40 36 33 30 27 19 14 16 12 9 10 10 10 9 9 8 7 9 13 14 14 14 15 15 17 12 5 6 14 15
46 49 51 50 52 54 52 49 46 43 46 51 49 47 43 40 37 37 31 24 19 22 17 17 17 18 18 17 14 17 16 17 18 19 22 22 21 21 21 16 11 9 11
52 55 54 57 60 61 63 60 56 51 48 47 43 49 49 46 44 42 42 33 28 28 26 25 28 31 30 25 26 25 23 23 26 29 29 30 29 29 26 25 26 24 14
51 55 59 63 65 64 66 69 65 59 56 53 50 45 48 49 49 49 47 44 41 39 40 43 35 36 40 39 36 32 32 32 34 37 37 38 38 38 38 38 33 33 27
49 54 58 62 65 67 67 70 72 71 66 63 61 54 49 52 53 54 54 50 53 54 53 51 52 48 46 44 43 43 43 44 44 46 44 46 48 48 47 49 44 41 38
55 56 55 60 62 67 72 76 80 80 76 74 71 63 58 55 54 57 57 58 61 59 58 58 59 58 55 53 50 50 53 54 56 56 57 55 56 57 57 58 57 51 47
55 52 54 56 61 64 69 71 77 76 78 77 73 73 64 61 58 59 61 65 66 63 64 64 66 67 63 62 62 61 49 61 69 68 70 69 66 65 66 66 66 62 58
34 47 52 54 56 59 68 73 75 79 83 81 81 78 75 69 66 59 63 61 68 74 70 73 73 73 74 74 74 63 25 46 52 64 75 79 79 75 74 72 73 71 70
25 27 36 44 46 51 62 75 77 76 77 74 79 77 77 68 70 59 56 65 62 68 76 77 84 84 88 84 84 84 85 82 49 40 52 61 79 81 80 82 80 78 78
9 12 17 26 37 43 50 63 71 76 75 74 70 68 66 67 67 60 63 65 67 71 71 78 84 89 91 99 97 93 90 95 94 86 70 70 67 65 71 86 87 84 83
3 4 10 15 22 30 37 46 55 60 64 66 65 66 61 55 51 53 59 62 63 68 73 77 77 84 88 97 103 105 104 88 98 96 95 100 92 92 86 81 89 88 89
Wind_Direction_850mb
160 159 152 147 140 131 126 114 105 102 102 105 108 100 85 74 66 64 66 82 98 100 96 85 93 93 101 110 111 114 107 101 94 90 88 90 90 92 93 91 90 89 89
156 157 153 152 147 138 116 98 96 100 105 109 109 104 91 87 79 72 72 87 98 95 93 94 90 102 103 107 113 116 119 111 105 103 98 95 94 95 93 85 86 89 90
166 160 158 155 148 138 120 108 100 101 106 112 117 108 101 91 81 73 72 83 96 96 89 97 95 95 100 105 112 118 123 124 123 124 120 105 98 87 85 93 90 81 79
171 164 163 159 153 144 129 118 110 105 100 102 108 104 106 92 86 75 70 85 94 97 93 100 96 95 92 94 97 98 102 106 111 126 117 110 102 96 94 90 83 81 83
175 168 166 163 158 150 138 128 122 115 110 106 105 108 114 110 87 77 67 84 91 97 96 101 94 85 82 83 86 87 87 90 96 100 100 103 97 100 98 91 94 98 100
177 175 173 169 164 158 149 141 135 127 115 108 108 114 127 119 128 86 66 68 86 91 95 108 83 82 79 83 85 87 91 92 94 88 89 84 94 102 104 108 111 113 104
180 181 181 178 174 169 160 152 145 137 131 124 120 121 129 123 161 110 70 69 92 89 92 96 88 78 75 83 88 90 93 96 92 89 97 104 106 108 108 112 117 117 119
185 186 188 186 185 183 178 168 162 156 150 141 133 131 136 147 159 84 48 48 83 93 101 105 88 78 77 87 93 101 107 104 109 114 116 119 106 108 110 107 113 110 108
190 196 195 195 193 194 193 185 180 175 167 159 149 148 153 158 153 112 57 40 137 116 122 115 109 94 90 92 98 112 124 122 132 141 132 132 163 116 157 113 102 115 117
194 203 205 204 203 203 202 201 199 193 185 180 177 176 175 172 169 167 127 83 162 158 140 123 113 100 92 91 102 118 128 128 139 150 138 131 101 40 19 107 120 129 122
198 208 211 212 210 210 211 210 208 208 207 204 201 202 202 209 234 252 261 177 179 172 147 129 122 113 102 95 105 152 179 187 189 170 147 145 235 302 30 137 149 135 122
202 207 212 215 216 216 216 217 217 216 216 216 215 217 216 211 234 254 249 217 194 182 154 142 138 131 117 97 87 165 201 213 212 211 215 252 277 354 35 188 155 132 126
205 211 213 215 219 223 224 223 223 224 223 222 221 221 219 225 237 252 245 228 209 184 166 157 157 153 141 127 122 176 207 220 235 222 267 277 338 344 357 144 137 128 114
214 216 218 219 222 227 230 231 232 230 230 228 229 228 227 231 222 236 226 219 207 180 181 181 168 162 160 153 153 189 213 223 222 226 228 246 299 328 4 124 131 129 130
223 223 222 222 223 225 228 235 237 237 236 236 233 233 231 230 225 229 214 206 208 207 197 195 190 203 220 231 225 200 211 232 234 252 252 278 286 315 338 144 163 145 140
231 232 231 231 232 234 235 240 244 243 242 239 237 236 234 232 230 226 225 221 212 214 217 221 234 246 249 255 268 263 236 234 234 258 252 268 289 292 301 193 172 156 153
242 240 236 237 238 240 242 245 246 251 247 244 241 239 236 235 234 230 230 229 225 220 230 241 251 255 257 256 265 270 250 234 234 234 254 262 268 276 285 265 243 200 174
245 244 244 241 240 241 243 246 248 252 254 250 248 241 239 237 237 236 234 238 240 243 250 255 268 266 261 261 262 260 250 241 231 234 250 248 261 267 264 245 258 276 254
248 246 245 244 243 243 243 244 246 251 255 256 252 247 241 241 240 240 239 241 241 246 248 249 246 258 260 261 259 253 244 247 240 242 249 250 260 262 269 264 252 272 265
247 245 245 245 246 245 244 244 245 248 250 253 254 252 248 245 243 244 243 246 246 243 243 247 249 248 249 249 253 251 250 246 240 243 249 249 250 258 259 266 266 265 263
242 238 239 241 242 243 241 240 241 244 246 249 251 254 253 250 246 248 248 247 249 251 254 252 252 253 253 252 249 251 249 248 249 248 247 256 254 252 254 259 263 264 260
238 238 238 242 242 243 245 246 245 248 249 253 255 257 256 252 251 249 253 252 251 254 256 256 255 253 253 258 251 249 252 250 253 249 249 248 251 252 251 254 256 259 257
237 238 243 246 247 247 244 244 244 245 247 249 253 254 258 257 255 255 256 257 262 253 255 257 258 256 252 253 253 247 240 244 258 258 256 251 250 252 254 250 253 254 256
235 234 243 243 242 244 242 241 243 245 247 253 252 255 261 259 260 264 263 256 265 271 256 261 259 257 250 253 246 248 254 252 252 263 257 263 254 252 257 253 250 252 253
199 230 253 248 239 240 240 240 242 245 251 256 258 257 260 262 263 265 264 259 266 265 265 268 268 261 261 253 253 253 249 249 251 256 260 263 257 255 262 255 251 251 253
104 241 268 264 248 243 241 239 241 245 251 256 260 263 268 272 274 269 270 271 271 271 271 271 275 270 267 263 257 256 255 256 251 254 258 260 261 267 268 263 254 253 250